{"data":{"norad_id":58509,"epoch":"2026-05-25T00:19:02.430048Z","epoch_age_seconds":64057,"freshness":"FRESH","line1":"1 58509U 23191B   26145.01322257 -.00008053  00000+0 -28348-3 0  9998","line2":"2 58509  43.0041  39.2437 0001336 256.0639 104.0064 15.27574427137069","mean_motion":15.27574427,"eccentricity":0.0001336,"inclination_deg":43.0041,"raan_deg":39.2437,"arg_perigee_deg":256.0639,"mean_anomaly_deg":104.0064,"bstar":-0.00028348,"rev_number":13706,"period_min":94.267092623959,"perigee_km":482.14912696537,"apogee_km":483.98244034916,"semimajor_km":6861.2027836573,"source":"CELESTRAK","updated_at":"2026-05-25T13:38:18.655186Z"}}